Estación Meteorológica Peña el Pijo (Robertgarden) [ 07/23/19 00:14:42 CEST ]

Fecha Hora Presion(HPa) Temp (°C) Humedad % Rocio (°C) Viento ( m/s) Direccion Lluvia 1Hora(mm) Lluvia 24H(mm) LLuvia Total(mm)
2019-Jul-02 01:09:06 1010.700 - - - - NNW     342.62
2019-Jul-02 02:08:59 1010.400 - - - - NNW     342.62
2019-Jul-02 03:09:29 1010.000 - - - - NNW     342.62
2019-Jul-02 04:08:58 1009.800 - - - - NNW     342.62
2019-Jul-02 05:09:27 1009.600 - - - - NNW     342.62
2019-Jul-02 06:09:30 1009.700 - - - - NNW     342.62
2019-Jul-02 08:09:34 1009.900 - - - - NNW     342.62
2019-Jul-02 09:08:39 1009.800 - - - - NNW     342.62
2019-Jul-02 10:09:07 1010.000 - - - - NNW     342.62
2019-Jul-02 11:08:54 1009.800 - - - - NNW     342.62
2019-Jul-02 12:09:12 1010.000 - - - - NNW     342.62
2019-Jul-02 13:09:00 1009.400 - - - - NNW     342.62
2019-Jul-02 14:09:27 1009.100 - - - - NNW     342.62
2019-Jul-02 15:09:05 1008.900 - - - - NNW     342.62
2019-Jul-02 16:09:08 1008.900 - - - - NNW     342.62
2019-Jul-02 17:09:34 1008.300 - - - - NNW     342.62
2019-Jul-02 18:09:06 1008.400 - - - - NNW     342.62
2019-Jul-02 19:09:03 1008.400 - - - - NNW     342.62
2019-Jul-02 20:08:50 1008.200 - - - - NNW     342.62
2019-Jul-02 21:09:13 1008.500 - - - - NNW     342.62
2019-Jul-02 22:09:08 1009.000 - - - - NNW     342.62
2019-Jul-02 23:09:20 1009.500 - - - - NNW     342.62

Temperatura Máxima:    Temperatura Mínima:
Presión Máxima:1010.700 Hpa    Presión Mínima:1008.200 Hpa


Volver